Location: Comstock Ranch
(38.0499°N, 120.2627°W)
Time: 21:57:25
(UTC+00:00)

USA 215 - Pass Details

Date: 08 September 2024
Orbit: 1099 x 1108 km, 123.0° (Epoch: 25 September)

Event Time Altitude Azimuth Distance (km) Brightness Sun altitude
Rises 12:59:42 0° 142° (SE) 3,902 6.5 -8.1°
Reaches altitude 10° 13:02:11 10° 145° (SE) 2,946 5.8 -7.7°
Maximum altitude 13:08:39 68° 227° (SW) 1,176 3.3 -6.4°
Drops below altitude 10° 13:15:10 10° 310° (NW) 2,958 5.2 -5.2°
Sets 13:17:40 0° 313° (NW) 3,918 5.8 -4.7°
